KE7MWT Weather Reports


Display with metric or nautical units.
time (UTC)temp
F
wind
direction
speed
MPH
gust
MPH
rain 1hr
in
rain 24hr
in
rain mn
in
humidity
%
barometer
mb
20260903022830 96 248 1.0 4.0 0.00 0.00 0.00 32 1014.3
20260903022318 96 279 1.0 3.0 0.00 0.00 0.00 32 1014.3
20260903021823 96 263 1.0 3.0 0.00 0.00 0.00 31 1014.2
20260903021526 96 242 1.0 3.0 0.00 0.00 0.00 35 1010.7
20260903021315 96 249 1.0 3.0 0.00 0.00 0.00 31 1014.2
20260903020820 97 232 2.0 3.0 0.00 0.00 0.00 31 1014.1
20260903020329 97 230 2.0 4.0 0.00 0.00 0.00 31 1014.1
20260903020024 97 267 1.0 4.0 0.00 0.00 0.00 34 1010.6
20260903015814 97 244 1.0 4.0 0.00 0.00 0.00 30 1014.0
20260903015343 98 261 2.0 5.0 0.00 0.00 0.00 29 1014.0
20260903014827 98 245 3.0 5.0 0.00 0.00 0.00 29 1013.9
20260903014523 98 281 1.0 4.0 0.00 0.00 0.00 33 1010.4
20260903014317 98 277 1.0 4.0 0.00 0.00 0.00 29 1013.8
20260903013842 98 278 2.0 7.0 0.00 0.00 0.00 29 1013.8
20260903013350 98 271 3.0 7.0 0.00 0.00 0.00 28 1013.7
20260903013024 98 273 1.0 4.0 0.00 0.00 0.00 32 1010.2
20260903012814 99 252 2.0 4.0 0.00 0.00 0.00 28 1013.7
20260903012343 99 265 2.0 8.0 0.00 0.00 0.00 28 1013.7
20260903011827 99 291 3.0 8.0 0.00 0.00 0.00 28 1013.7
20260903011528 99 274 3.0 8.0 0.00 0.00 0.00 31 1010.4
20260903011316 99 269 3.0 6.0 0.00 0.00 0.00 28 1013.8
20260903010825 100 280 1.0 6.0 0.00 0.00 0.00 28 1013.7
20260903010314 100 346 3.0 6.0 0.00 0.00 0.00 27 1013.7
20260903010006 99 281 2.0 6.0 0.00 0.00 0.00 31 1010.3
20260903005818 100 278 2.0 5.0 0.00 0.00 0.00 28 1013.7
20260903005347 100 283 2.0 5.0 0.00 0.00 0.00 27 1013.7
20260903004851 100 292 2.0 5.0 0.00 0.00 0.00 27 1013.7
20260903004521 100 258 2.0 6.0 0.00 0.00 0.00 30 1010.4
20260903004319 100 254 1.0 6.0 0.00 0.00 0.00 27 1013.7
20260903003823 101 281 1.0 3.0 0.00 0.00 0.00 26 1013.7
20260903003332 100 324 1.0 3.0 0.00 0.00 0.00 25 1013.7
20260903003020 100 351 2.0 3.0 0.00 0.00 0.00 29 1010.4
20260903002817 101 329 1.0 3.0 0.00 0.00 0.00 26 1013.8
20260903002326 100 288 1.0 5.0 0.00 0.00 0.00 26 1013.9
20260903001831 100 257 1.0 8.0 0.00 0.00 0.00 26 1013.8
20260903001524 99 248 3.0 8.0 0.00 0.00 0.00 30 1010.5
20260903001319 100 282 2.0 8.0 0.00 0.00 0.00 26 1014.0
20260903000830 100 257 4.0 9.0 0.00 0.00 0.00 26 1013.9
20260903000321 101 281 5.0 9.0 0.00 0.00 0.00 25 1013.9
20260903000006 101 278 4.0 9.0 0.00 0.00 0.00 29 1010.5
20260902235850 102 292 4.0 8.0 0.00 0.00 0.00 25 1014.0
20260902235320 101 311 2.0 11.0 0.00 0.00 0.00 25 1014.0
20260902234829 102 300 4.0 11.0 0.00 0.00 0.00 25 1014.1
20260902234507 102 279 3.0 8.0 0.00 0.00 0.00 29 1010.7
20260902234321 102 261 3.0 8.0 0.00 0.00 0.00 25 1014.2
20260902233829 102 173 2.0 9.0 0.00 0.00 0.00 26 1014.1
20260902233320 102 215 5.0 9.0 0.00 0.00 0.00 25 1014.2
20260902233015 101 225 3.0 9.0 0.00 0.00 0.00 29 1010.7
20260902232828 101 207 2.0 9.0 0.00 0.00 0.00 25 1014.2
20260902232324 102 233 3.0 9.0 0.00 0.00 0.00 25 1014.3
20260902231832 103 186 3.0 5.0 0.00 0.00 0.00 25 1014.3
20260902231524 102 241 2.0 9.0 0.00 0.00 0.00 29 1011.0
20260902231323 102 218 2.0 8.0 0.00 0.00 0.00 25 1014.4
20260902230830 102 222 4.0 8.0 0.00 0.00 0.00 25 1014.4
20260902230323 102 150 1.0 10.0 0.00 0.00 0.00 25 1014.6
20260902230027 103 218 2.0 10.0 0.00 0.00 0.00 27 1011.2
20260902225831 104 257 4.0 10.0 0.00 0.00 0.00 24 1014.6
20260902225323 104 254 4.0 8.0 0.00 0.00 0.00 25 1014.7
20260902224850 103 261 3.0 8.0 0.00 0.00 0.00 26 1014.7
20260902224506 103 217 4.0 8.0 0.00 0.00 0.00 29 1011.4
20260902224319 103 245 4.0 7.0 0.00 0.00 0.00 25 1014.7
20260902223826 103 232 2.0 8.0 0.00 0.00 0.00 26 1014.8
20260902223322 102 151 3.0 10.0 0.00 0.00 0.00 26 1014.9
20260902223012 102 223 5.0 12.0 0.00 0.00 0.00 30 1011.6
20260902222850 102 196 5.0 12.0 0.00 0.00 0.00 26 1015.1
20260902222320 103 182 4.0 10.0 0.00 0.00 0.00 27 1015.1
20260902221826 102 231 2.0 6.0 0.00 0.00 0.00 26 1015.1
20260902221521 102 236 2.0 7.0 0.00 0.00 0.00 30 1011.8
20260902221319 103 186 4.0 6.0 0.00 0.00 0.00 25 1015.2
20260902220846 102 198 1.0 6.0 0.00 0.00 0.00 25 1015.3
20260902220336 102 355 2.0 9.0 0.00 0.00 0.00 26 1015.4
20260902220038 101 211 2.0 11.0 0.00 0.00 0.00 29 1012.0
20260902215823 102 171 3.0 11.0 0.00 0.00 0.00 26 1015.5
20260902215315 103 281 5.0 11.0 0.00 0.00 0.00 25 1015.5
20260902214823 103 295 3.0 8.0 0.00 0.00 0.00 26 1015.5
20260902214534 102 265 4.0 8.0 0.00 0.00 0.00 29 1012.2
20260902214315 103 240 3.0 7.0 0.00 0.00 0.00 27 1015.6
20260902213826 103 224 3.0 10.0 0.00 0.00 0.00 26 1015.8
20260902213317 103 235 5.0 11.0 0.00 0.00 0.00 26 1015.7
20260902213007 103 259 5.0 11.0 0.00 0.00 0.00 28 1012.4
20260902212825 104 282 6.0 11.0 0.00 0.00 0.00 27 1015.8
20260902212318 103 115 1.0 7.0 0.00 0.00 0.00 27 1015.9
20260902211826 103 215 3.0 7.0 0.00 0.00 0.00 28 1015.9
20260902211514 102 139 2.0 11.0 0.00 0.00 0.00 32 1012.5
20260902211317 102 167 3.0 11.0 0.00 0.00 0.00 28 1016.0
20260902210825 101 202 6.0 11.0 0.00 0.00 0.00 28 1016.1
20260902210318 102 209 4.0 14.0 0.00 0.00 0.00 29 1016.1
20260902210039 101 226 5.0 15.0 0.00 0.00 0.00 32 1012.8
20260902205826 102 196 4.0 12.0 0.00 0.00 0.00 28 1016.2
20260902205321 102 180 2.0 10.0 0.00 0.00 0.00 29 1016.3
20260902204848 101 127 3.0 10.0 0.00 0.00 0.00 29 1016.4
20260902204533 101 211 4.0 10.0 0.00 0.00 0.00 32 1013.1
20260902204319 102 202 4.0 10.0 0.00 0.00 0.00 28 1016.5
20260902203828 102 275 4.0 10.0 0.00 0.00 0.00 29 1016.5
20260902203318 102 202 3.0 6.0 0.00 0.00 0.00 28 1016.6
20260902203028 100 155 1.0 11.0 0.00 0.00 0.00 33 1013.2
20260902202827 100 62 1.0 11.0 0.00 0.00 0.00 28 1016.7
20260902202317 101 232 3.0 11.0 0.00 0.00 0.00 29 1016.9
20260902201825 101 200 4.0 10.0 0.00 0.00 0.00 30 1017.0
20260902201512 101 195 5.0 11.0 0.00 0.00 0.00 32 1013.5
20260902201337 102 216 4.0 12.0 0.00 0.00 0.00 29 1017.0
20260902200823 101 244 4.0 12.0 0.00 0.00 0.00 29 1017.1
20260902200318 101 242 5.0 10.0 0.00 0.00 0.00 30 1017.1
20260902200018 100 219 6.0 11.0 0.00 0.00 0.00 34 1013.7
20260902195827 100 176 3.0 7.0 0.00 0.00 0.00 30 1017.2
20260902195318 101 171 2.0 7.0 0.00 0.00 0.00 29 1017.3
20260902194826 100 184 2.0 6.0 0.00 0.00 0.00 30 1017.4
20260902194522 99 242 3.0 8.0 0.00 0.00 0.00 33 1014.0
20260902194318 100 207 3.0 8.0 0.00 0.00 0.00 29 1017.5
20260902193824 101 207 4.0 8.0 0.00 0.00 0.00 30 1017.5
20260902193336 99 55 1.0 5.0 0.00 0.00 0.00 31 1017.6
20260902193027 99 302 1.0 5.0 0.00 0.00 0.00 34 1014.1
20260902192843 100 15 2.0 5.0 0.00 0.00 0.00 30 1017.6
20260902192313 100 112 2.0 7.0 0.00 0.00 0.00 30 1017.7
20260902191841 99 279 3.0 9.0 0.00 0.00 0.00 31 1017.8
20260902191510 98 241 4.0 10.0 0.00 0.00 0.00 35 1014.4
20260902191326 99 199 4.0 9.0 0.00 0.00 0.00 31 1017.9
20260902190814 97 89 3.0 10.0 0.00 0.00 0.00 33 1017.9
20260902190329 97 252 4.0 10.0 0.00 0.00 0.00 33 1018.0
20260902190017 98 192 5.0 10.0 0.00 0.00 0.00 37 1014.7
20260902185837 98 194 4.0 7.0 0.00 0.00 0.00 34 1018.1
20260902185328 98 165 3.0 8.0 0.00 0.00 0.00 34 1018.1
20260902184816 98 278 3.0 8.0 0.00 0.00 0.00 34 1018.2
20260902184530 97 115 1.0 7.0 0.00 0.00 0.00 40 1014.7
20260902184326 97 128 1.0 7.0 0.00 0.00 0.00 37 1018.2
20260902183815 97 153 2.0 9.0 0.00 0.00 0.00 36 1018.4
20260902183327 97 234 4.0 9.0 0.00 0.00 0.00 35 1018.4
20260902183027 97 184 3.0 9.0 0.00 0.00 0.00 40 1015.1
20260902182814 97 205 3.0 8.0 0.00 0.00 0.00 37 1018.5
20260902182327 97 262 1.0 5.0 0.00 0.00 0.00 35 1018.6
20260902181835 98 187 2.0 8.0 0.00 0.00 0.00 37 1018.7
20260902181528 96 131 3.0 8.0 0.00 0.00 0.00 41 1015.2
20260902181329 97 169 3.0 8.0 0.00 0.00 0.00 39 1018.7
20260902180818 97 110 1.0 6.0 0.00 0.00 0.00 38 1018.7
20260902180329 96 132 1.0 6.0 0.00 0.00 0.00 38 1018.7
20260902180014 96 124 1.0 6.0 0.00 0.00 0.00 42 1015.3
20260902175836 96 111 2.0 6.0 0.00 0.00 0.00 39 1018.8
20260902175328 96 91 1.0 7.0 0.00 0.00 0.00 39 1018.9
20260902174816 95 135 2.0 9.0 0.00 0.00 0.00 39 1018.8
20260902174519 94 177 3.0 9.0 0.00 0.00 0.00 44 1015.4
20260902174329 95 178 5.0 9.0 0.00 0.00 0.00 40 1018.9
20260902173836 94 205 3.0 8.0 0.00 0.00 0.00 41 1018.9
20260902173348 94 196 3.0 8.0 0.00 0.00 0.00 40 1019.0
20260902173025 94 198 2.0 8.0 0.00 0.00 0.00 44 1015.6
20260902172815 94 95 3.0 8.0 0.00 0.00 0.00 40 1018.9
20260902172327 94 277 3.0 7.0 0.00 0.00 0.00 40 1019.0
20260902171819 95 244 4.0 7.0 0.00 0.00 0.00 39 1019.1
20260902171531 94 205 3.0 7.0 0.00 0.00 0.00 44 1015.6
20260902171331 94 192 2.0 7.0 0.00 0.00 0.00 41 1019.0
20260902170816 93 267 3.0 6.0 0.00 0.00 0.00 41 1019.0
20260902170329 93 207 2.0 5.0 0.00 0.00 0.00 42 1019.0
20260902170032 92 221 1.0 6.0 0.00 0.00 0.00 45 1015.5
20260902165815 93 246 2.0 6.0 0.00 0.00 0.00 42 1019.0
20260902165327 93 25 2.0 8.0 0.00 0.00 0.00 41 1019.0
20260902164814 92 155 4.0 8.0 0.00 0.00 0.00 43 1019.0
20260902164515 92 183 3.0 8.0 0.00 0.00 0.00 46 1015.5
20260902164326 92 165 1.0 7.0 0.00 0.00 0.00 44 1019.0
20260902163815 92 141 1.0 7.0 0.00 0.00 0.00 45 1019.0
20260902163330 91 128 3.0 7.0 0.00 0.00 0.00 46 1018.9
20260902163026 91 191 2.0 8.0 0.00 0.00 0.00 50 1015.5
20260902162818 91 98 1.0 8.0 0.00 0.00 0.00 47 1019.0
20260902162329 91 128 2.0 8.0 0.00 0.00 0.00 47 1019.0
20260902161817 91 179 2.0 3.0 0.00 0.00 0.00 47 1019.0
20260902161527 90 188 1.0 6.0 0.00 0.00 0.00 53 1015.5
20260902161330 90 163 1.0 6.0 0.00 0.00 0.00 49 1019.0
20260902160838 90 213 3.0 6.0 0.00 0.00 0.00 48 1018.9
20260902160329 90 111 1.0 6.0 0.00 0.00 0.00 49 1018.9
20260902160037 89 175 2.0 6.0 0.00 0.00 0.00 53 1015.5
20260902155816 89 196 2.0 5.0 0.00 0.00 0.00 50 1018.9
20260902155348 89 207 2.0 5.0 0.00 0.00 0.00 49 1018.9
20260902154833 90 180 2.0 4.0 0.00 0.00 0.00 48 1018.9
20260902154516 89 107 0.0 4.0 0.00 0.00 0.00 54 1015.5
20260902154329 89 92 0.0 4.0 0.00 0.00 0.00 51 1018.9
20260902153816 89 87 0.0 3.0 0.00 0.00 0.00 51 1018.9
20260902153347 89 111 1.0 3.0 0.00 0.00 0.00 52 1018.8
20260902153029 88 121 1.0 5.0 0.00 0.00 0.00 56 1015.4
20260902152815 88 198 1.0 5.0 0.00 0.00 0.00 52 1018.9
20260902152326 88 88 1.0 5.0 0.00 0.00 0.00 52 1018.9
20260902151814 88 109 0.0 2.0 0.00 0.00 0.00 54 1018.8
20260902151528 87 79 0.0 2.0 0.00 0.00 0.00 57 1015.3
20260902151346 87 108 1.0 2.0 0.00 0.00 0.00 55 1018.9
20260902150814 87 112 0.0 2.0 0.00 0.00 0.00 56 1018.8
20260902150326 87 108 1.0 2.0 0.00 0.00 0.00 55 1018.8
20260902150010 86 113 0.0 2.0 0.00 0.00 0.00 59 1015.4
20260902145814 86 113 0.0 2.0 0.00 0.00 0.00 56 1018.9
20260902145330 86 113 0.0 2.0 0.00 0.00 0.00 56 1018.8
20260902144817 86 113 1.0 2.0 0.00 0.00 0.00 57 1018.7
20260902144525 85 129 0.0 2.0 0.00 0.00 0.00 60 1015.3
20260902144349 86 113 0.0 2.0 0.00 0.00 0.00 56 1018.8
20260902143837 85 114 1.0 2.0 0.00 0.00 0.00 57 1018.8
20260902143327 85 118 1.0 2.0 0.00 0.00 0.00 58 1018.8
20260902143017 84 103 1.0 2.0 0.00 0.00 0.00 62 1015.2
20260902142815 85 110 0.0 2.0 0.00 0.00 0.00 58 1018.7
20260902142326 84 124 1.0 2.0 0.00 0.00 0.00 59 1018.6
20260902141814 84 115 1.0 2.0 0.00 0.00 0.00 59 1018.6
20260902141522 83 118 1.0 3.0 0.00 0.00 0.00 63 1015.0
20260902141325 84 118 1.0 3.0 0.00 0.00 0.00 60 1018.5
20260902140814 83 109 1.0 3.0 0.00 0.00 0.00 60 1018.4
20260902140330 83 94 1.0 3.0 0.00 0.00 0.00 60 1018.3
20260902140028 82 109 1.0 3.0 0.00 0.00 0.00 64 1014.9
20260902135818 83 109 1.0 3.0 0.00 0.00 0.00 61 1018.3
20260902135349 83 113 1.0 3.0 0.00 0.00 0.00 61 1018.2
20260902134817 83 107 1.0 3.0 0.00 0.00 0.00 60 1018.1
20260902134512 82 123 1.0 3.0 0.00 0.00 0.00 64 1014.6
20260902134327 82 130 1.0 3.0 0.00 0.00 0.00 60 1018.1
20260902133815 82 125 1.0 3.0 0.00 0.00 0.00 61 1018.1
20260902133346 82 89 0.0 2.0 0.00 0.00 0.00 61 1018.0
20260902133013 81 89 0.0 2.0 0.00 0.00 0.00 65 1014.4
20260902132814 81 89 0.0 2.0 0.00 0.00 0.00 62 1017.9
20260902132325 81 89 0.0 2.0 0.00 0.00 0.00 61 1017.9
20260902131813 82 89 0.0 2.0 0.00 0.00 0.00 61 1017.9
20260902131520 81 88 0.0 3.0 0.00 0.00 0.00 64 1014.3
20260902131324 82 88 1.0 3.0 0.00 0.00 0.00 60 1017.8
20260902130817 82 86 1.0 3.0 0.00 0.00 0.00 60 1017.7
20260902130329 82 79 1.0 3.0 0.00 0.00 0.00 60 1017.6
20260902130035 82 99 1.0 3.0 0.00 0.00 0.00 63 1014.1
20260902125816 82 110 1.0 3.0 0.00 0.00 0.00 59 1017.7
20260902125347 82 106 1.0 3.0 0.00 0.00 0.00 59 1017.6
20260902124835 82 105 1.0 3.0 0.00 0.00 0.00 59 1017.6
20260902124532 82 110 1.0 3.0 0.00 0.00 0.00 63 1014.0
20260902124344 82 138 1.0 3.0 0.00 0.00 0.00 60 1017.5
20260902123828 82 106 1.0 3.0 0.00 0.00 0.00 60 1017.5
20260902123336 82 101 0.0 3.0 0.00 0.00 0.00 60 1017.5
20260902123014 81 119 1.0 3.0 0.00 0.00 0.00 64 1013.8
20260902122840 82 101 1.0 2.0 0.00 0.00 0.00 60 1017.4
20260902122328 82 98 1.0 1.0 0.00 0.00 0.00 60 1017.4
20260902121832 82 119 0.0 2.0 0.00 0.00 0.00 60 1017.4
20260902121515 82 113 0.0 3.0 0.00 0.00 0.00 63 1013.7
20260902121321 82 113 1.0 3.0 0.00 0.00 0.00 60 1017.4
20260902120826 82 67 1.0 3.0 0.00 0.00 0.00 60 1017.3
20260902120319 82 95 0.0 3.0 0.00 0.00 0.00 60 1017.3
20260902120024 82 82 1.0 3.0 0.00 0.00 0.00 64 1013.6
20260902115824 82 92 0.0 2.0 0.00 0.00 0.00 60 1017.3
20260902115332 82 88 1.0 3.0 0.00 0.00 0.00 60 1017.2
20260902114817 82 77 2.0 3.0 0.00 0.00 0.00 60 1017.3
20260902114529 82 84 2.0 3.0 0.00 0.00 0.00 63 1013.7
20260902114326 82 82 2.0 3.0 0.00 0.00 0.00 60 1017.3
20260902113831 82 88 1.0 3.0 0.00 0.00 0.00 60 1017.3
20260902113320 82 89 0.0 2.0 0.00 0.00 0.00 60 1017.3
20260902113030 82 78 0.0 3.0 0.00 0.00 0.00 63 1013.6
20260902112845 83 78 1.0 3.0 0.00 0.00 0.00 59 1017.2
20260902112332 83 92 1.0 3.0 0.00 0.00 0.00 59 1017.2
20260902111817 83 96 1.0 3.0 0.00 0.00 0.00 59 1017.1
20260902111517 82 86 1.0 2.0 0.00 0.00 0.00 62 1013.6
20260902111330 83 83 1.0 2.0 0.00 0.00 0.00 59 1017.2
20260902110814 83 88 1.0 3.0 0.00 0.00 0.00 59 1017.1
20260902110324 83 81 1.0 3.0 0.00 0.00 0.00 59 1017.1
20260902110025 83 84 1.0 2.0 0.00 0.00 0.00 62 1013.6
20260902105830 83 78 1.0 2.0 0.00 0.00 0.00 59 1017.1
20260902105339 83 72 0.0 3.0 0.00 0.00 0.00 59 1017.1
20260902104822 83 91 1.0 2.0 0.00 0.00 0.00 59 1017.1
20260902104537 82 90 1.0 2.0 0.00 0.00 0.00 63 1013.5
20260902104331 83 83 1.0 2.0 0.00 0.00 0.00 59 1017.1
20260902103836 83 91 0.0 2.0 0.00 0.00 0.00 59 1017.1
20260902103344 83 76 0.0 2.0 0.00 0.00 0.00 58 1017.1
20260902103034 83 76 0.0 2.0 0.00 0.00 0.00 62 1013.6
20260902102828 83 76 0.0 2.0 0.00 0.00 0.00 59 1017.2
20260902102317 83 76 1.0 1.0 0.00 0.00 0.00 60 1017.2
20260902101822 83 74 0.0 2.0 0.00 0.00 0.00 60 1017.2
20260902101526 83 74 1.0 2.0 0.00 0.00 0.00 63 1013.6
20260902101331 83 59 1.0 2.0 0.00 0.00 0.00 59 1017.1
20260902100820 83 55 1.0 1.0 0.00 0.00 0.00 59 1017.2
20260902100328 83 49 0.0 2.0 0.00 0.00 0.00 59 1017.2
20260902100020 83 49 0.0 2.0 0.00 0.00 0.00 63 1013.6
20260902095833 83 49 0.0 2.0 0.00 0.00 0.00 59 1017.1
20260902095320 83 49 0.0 1.0 0.00 0.00 0.00 58 1017.1
20260902094825 84 49 0.0 2.0 0.00 0.00 0.00 57 1017.1
20260902094531 83 63 0.0 2.0 0.00 0.00 0.00 61 1013.5
20260902094314 84 63 0.0 2.0 0.00 0.00 0.00 57 1017.1
20260902093819 84 53 0.0 2.0 0.00 0.00 0.00 57 1017.0
20260902093328 84 115 0.0 2.0 0.00 0.00 0.00 58 1017.0
20260902093036 84 115 0.0 2.0 0.00 0.00 0.00 61 1013.4
20260902092833 84 115 0.0 2.0 0.00 0.00 0.00 58 1017.0
20260902092342 84 116 0.0 2.0 0.00 0.00 0.00 58 1016.9
20260902091826 84 116 0.0 2.0 0.00 0.00 0.00 57 1016.9
20260902091531 84 116 0.0 1.0 0.00 0.00 0.00 61 1013.3
20260902091319 84 116 0.0 0.0 0.00 0.00 0.00 57 1016.9
20260902090821 84 116 0.0 2.0 0.00 0.00 0.00 57 1016.9
20260902090317 84 116 0.0 2.0 0.00 0.00 0.00 57 1017.0
20260902090018 84 116 0.0 2.0 0.00 0.00 0.00 61 1013.4
20260902085822 84 116 0.0 2.0 0.00 0.00 0.00 58 1017.0
20260902085351 85 116 0.0 2.0 0.00 0.00 0.00 57 1017.1
20260902084835 85 116 0.0 1.0 0.00 0.00 0.00 56 1017.1
20260902084526 85 116 0.0 2.0 0.00 0.00 0.00 60 1013.5
20260902084343 85 116 0.0 2.0 0.00 0.00 0.00 56 1017.1
20260902083827 86 116 0.0 2.0 0.00 0.00 0.00 55 1017.1
20260902083315 86 116 0.0 2.0 0.00 0.00 0.00 54 1017.2
20260902083027 86 116 0.0 2.0 0.00 0.00 0.00 57 1013.6
20260902082820 87 116 0.0 2.0 0.00 0.00 0.00 54 1017.1
20260902082329 86 111 0.0 2.0 0.00 0.00 0.00 54 1017.1
20260902081833 86 111 0.0 2.0 0.00 0.00 0.00 54 1017.1
20260902081532 86 111 0.0 2.0 0.00 0.00 0.00 58 1013.6
20260902081321 87 111 0.0 2.0 0.00 0.00 0.00 54 1017.2
20260902080826 87 111 0.0 2.0 0.00 0.00 0.00 53 1017.2
20260902080319 87 119 0.0 2.0 0.00 0.00 0.00 52 1017.1
20260902080034 87 92 0.0 2.0 0.00 0.00 0.00 56 1013.5
20260902075824 87 92 0.0 2.0 0.00 0.00 0.00 52 1017.1
20260902075353 87 92 0.0 2.0 0.00 0.00 0.00 53 1017.0
20260902074817 87 92 0.0 2.0 0.00 0.00 0.00 53 1017.0
20260902074521 87 92 0.0 2.0 0.00 0.00 0.00 56 1013.4
20260902074326 87 92 0.0 2.0 0.00 0.00 0.00 52 1017.0
20260902073831 88 92 1.0 2.0 0.00 0.00 0.00 53 1016.9
20260902073319 87 92 0.0 2.0 0.00 0.00 0.00 53 1016.9
20260902073026 87 92 0.0 2.0 0.00 0.00 0.00 57 1013.3
20260902072824 87 92 0.0 2.0 0.00 0.00 0.00 53 1016.9
20260902072332 88 92 0.0 2.0 0.00 0.00 0.00 52 1016.9
20260902071817 88 92 1.0 2.0 0.00 0.00 0.00 52 1016.8
20260902071529 87 92 0.0 3.0 0.00 0.00 0.00 55 1013.2
20260902071326 88 92 0.0 3.0 0.00 0.00 0.00 52 1016.8
20260902070815 88 92 1.0 2.0 0.00 0.00 0.00 51 1016.7
20260902070324 88 77 0.0 2.0 0.00 0.00 0.00 51 1016.8
20260902070033 87 76 1.0 2.0 0.00 0.00 0.00 54 1013.2
20260902065849 88 85 1.0 2.0 0.00 0.00 0.00 51 1016.7
20260902065317 88 76 0.0 3.0 0.00 0.00 0.00 50 1016.6
20260902064842 88 76 1.0 3.0 0.00 0.00 0.00 50 1016.5
20260902064532 87 80 1.0 3.0 0.00 0.00 0.00 54 1013.0
20260902064330 88 89 1.0 3.0 0.00 0.00 0.00 51 1016.6
20260902063815 87 70 1.0 2.0 0.00 0.00 0.00 52 1016.5
20260902063324 87 171 0.0 2.0 0.00 0.00 0.00 51 1016.5
20260902063021 87 171 0.0 2.0 0.00 0.00 0.00 54 1012.9
20260902062829 87 171 0.0 2.0 0.00 0.00 0.00 50 1016.5
20260902062318 88 171 0.0 2.0 0.00 0.00 0.00 50 1016.5
20260902061823 87 171 0.0 0.0 0.00 0.00 0.00 51 1016.6
20260902061542 87 171 0.0 0.0 0.00 0.00 0.00 54 1013.1
20260902061316 88 171 0.0 0.0 0.00 0.00 0.00 49 1016.6
20260902060821 88 171 0.0 2.0 0.00 0.00 0.00 49 1016.6
20260902060350 88 171 0.0 2.0 0.00 0.00 0.00 48 1016.6
20260902060031 88 171 0.0 2.0 0.00 0.00 0.00 51 1013.2
20260902055854 89 171 0.0 1.0 0.00 0.00 0.00 48 1016.7
20260902055321 89 171 0.0 2.0 0.00 0.00 0.00 48 1016.7
20260902054826 89 171 0.0 2.0 0.00 0.00 0.00 47 1016.7
20260902054535 89 171 0.0 2.0 0.00 0.00 0.00 50 1013.2
20260902054314 89 171 0.0 2.0 0.00 0.00 0.00 47 1016.7
20260902053840 89 174 0.0 3.0 0.00 0.00 0.00 46 1016.6
20260902053328 89 175 1.0 3.0 0.00 0.00 0.00 47 1016.7
20260902053023 88 186 2.0 3.0 0.00 0.00 0.00 50 1013.3
20260902052833 88 186 1.0 3.0 0.00 0.00 0.00 47 1016.8
20260902052322 88 231 0.0 1.0 0.00 0.00 0.00 47 1016.7
20260902051827 88 279 0.0 0.0 0.00 0.00 0.00 47 1016.7
20260902051527 88 279 0.0 0.0 0.00 0.00 0.00 51 1013.2
20260902051320 88 279 0.0 0.0 0.00 0.00 0.00 47 1016.6
20260902050845 88 279 0.0 0.0 0.00 0.00 0.00 47 1016.5
20260902050353 88 279 0.0 0.0 0.00 0.00 0.00 48 1016.5
20260902050009 87 279 0.0 0.0 0.00 0.00 0.00 52 1013.1
20260902045817 88 279 0.0 0.0 0.00 0.00 0.00 49 1016.5
20260902045326 88 279 0.0 0.0 0.00 0.00 0.00 48 1016.5
20260902044831 88 279 0.0 0.0 0.00 0.00 0.00 48 1016.5
20260902044514 88 279 0.0 0.0 0.00 0.00 0.00 52 1012.9
20260902044320 88 279 0.0 0.0 0.00 0.00 0.00 47 1016.4
20260902043826 88 279 0.0 0.0 0.00 0.00 0.00 48 1016.4
20260902043313 88 279 0.0 0.0 0.00 0.00 0.00 50 1016.4
20260902043031 88 279 0.0 2.0 0.00 0.00 0.00 53 1012.9
20260902042819 88 279 0.0 2.0 0.00 0.00 0.00 48 1016.3
20260902042328 88 279 0.0 0.0 0.00 0.00 0.00 48 1016.3
20260902041817 88 279 0.0 0.0 0.00 0.00 0.00 47 1016.3
20260902041527 88 279 0.0 0.0 0.00 0.00 0.00 51 1012.8
20260902041346 88 279 0.0 2.0 0.00 0.00 0.00 47 1016.2
20260902040830 88 279 0.0 2.0 0.00 0.00 0.00 47 1016.2
20260902040319 89 279 0.0 0.0 0.00 0.00 0.00 47 1016.2
20260902040006 88 279 0.0 0.0 0.00 0.00 0.00 50 1012.7
20260902035824 89 279 0.0 0.0 0.00 0.00 0.00 46 1016.2
20260902035352 89 279 0.0 0.0 0.00 0.00 0.00 46 1016.1
20260902034816 89 279 0.0 0.0 0.00 0.00 0.00 45 1016.0
20260902034514 89 279 0.0 0.0 0.00 0.00 0.00 49 1012.5
20260902034325 89 279 0.0 0.0 0.00 0.00 0.00 46 1015.9
20260902033850 90 279 0.0 0.0 0.00 0.00 0.00 44 1015.8
20260902033318 90 279 0.0 0.0 0.00 0.00 0.00 45 1015.7
20260902033038 89 279 0.0 0.0 0.00 0.00 0.00 48 1012.2
20260902032842 90 279 0.0 0.0 0.00 0.00 0.00 45 1015.6
20260902032351 90 279 0.0 0.0 0.00 0.00 0.00 44 1015.4
20260902031814 90 279 0.0 0.0 0.00 0.00 0.00 44 1015.4
20260902031523 89 279 0.0 0.0 0.00 0.00 0.00 47 1011.9
20260902031322 90 279 0.0 0.0 0.00 0.00 0.00 43 1015.3
20260902030847 90 279 0.0 0.0 0.00 0.00 0.00 43 1015.2
20260902030320 90 279 0.0 0.0 0.00 0.00 0.00 44 1015.1
20260902030027 90 279 0.0 0.0 0.00 0.00 0.00 47 1011.6
20260902025824 91 279 0.0 0.0 0.00 0.00 0.00 41 1015.0
20260902025331 91 279 0.0 0.0 0.00 0.00 0.00 42 1015.0
20260902024815 91 279 0.0 0.0 0.00 0.00 0.00 41 1015.0
20260902024507 91 279 0.0 0.0 0.00 0.00 0.00 44 1011.5
20260902024325 92 279 0.0 0.0 0.00 0.00 0.00 41 1014.9
20260902023831 92 279 0.0 0.0 0.00 0.00 0.00 40 1014.8
20260902023322 92 279 0.0 0.0 0.00 0.00 0.00 39 1014.9
20260902023011 92 279 0.0 0.0 0.00 0.00 0.00 43 1011.4